Location: Recife
(8.0585°S, 34.8848°W)
Time: 22:03:40
(UTC-03:00)

Vanguard 1 - Pass Details

Date: 20 April 2026
Orbit: 654 x 3817 km, 34.2° (Epoch: 12 May)

Event Time Altitude Azimuth Distance (km) Brightness Sun altitude
Rises 15:39:52 0° 221° (SW) 3,994 13.5 22.1°
Reaches altitude 10° 15:42:17 10° 214° (SW) 3,311 13.1 21.5°
Maximum altitude 15:50:33 45° 142° (SE) 2,430 11.9 19.5°
Drops below altitude 10° 16:05:22 10° 74° (ENE) 5,795 13.5 16.0°
Sets 16:11:11 0° 68° (ENE) 7,255 14.0 14.6°
